Location: Unspecified
(38.9820°N, 94.4650°W)
Time: 00:37:10
(UTC-06:00)

CZ-3 Stage 3 - Visible Passes

Search period start: 17 January 2018 00:00
Search period end: 27 January 2018 00:00
Orbit: 425 x 34772 km, 31.0° (Epoch: 15 January)

Date Brightness Start Highest point End Pass type
(mag) Time Alt. Az. Time Alt. Az. Time Alt. Az.
17 Jan 6.8 03:34:06 16° SSW 03:37:36 17° S 04:10:44 10° SSE visible
18 Jan 4.3 20:08:20 10° WSW 20:12:06 23° SSW 20:12:06 23° SSW visible
20 Jan 6.9 03:25:27 15° SSW 03:28:33 16° S 12:50:48 10° SE visible
21 Jan 4.0 19:58:49 10° WSW 20:03:09 25° SSW 20:03:09 25° SSW visible
23 Jan 7.0 03:16:50 15° SSW 03:19:30 15° S 03:44:23 10° SSE visible
24 Jan 3.7 19:49:17 10° WSW 19:54:10 27° SSW 19:54:10 27° SSW visible
26 Jan 7.1 03:08:12 14° S 03:10:27 14° S 03:31:18 10° SSE visible
